Location: Winnipauk Village
(41.1295°N, 73.4171°W)
Time: 04:34:40
(UTC+00:00)

X-37B - Pass Details

Date: 03 August 2021
Orbit: 381 x 393 km, 45.0° (Epoch: 29 August)

Event Time Altitude Azimuth Distance (km) Brightness Sun altitude
Exits shadow 07:49:06 45° 124° (SE) 525 1.2 -19.6°
Drops below altitude 10° 07:51:45 10° 76° (ENE) 1,397 4.2 -19.2°
Sets 07:53:51 0° 71° (ENE) 2,252 5.6 -18.9°
